Regional Weather Roundup
Issued by NWS Burlington, VT

Home | Current Version | Previous Version | Text Only | Print | Product List | Glossary On
Versions: 1 2 3 4 5 6 7 8 9 10 11 12 13 14 15 16 17 18 19 20 21 22 23 24 25 26 27 28 29 30 31 32 33 34 35 36 37 38 39 40 41 42 43 44 45 46 47 48 49 50
000
ASUS41 KBTV 221130
RWRBTV
VERMONT REGIONAL WEATHER ROUNDUP
NATIONAL WEATHER SERVICE BURLINGTON VT
700 AM EDT FRI SEP 22 2017

NOTE: "FAIR" INDICATES FEW OR NO CLOUDS BELOW 12,000 FEET WITH NO
SIGNIFICANT WEATHER AND/OR OBSTRUCTIONS TO VISIBILITY.

* THESE REPORTS ARE NOT UNDER NWS QUALITY CONTROL AND/OR DO NOT
  REPORT WEATHER SUCH AS PRECIPITATION AND FOG.

VTZ001>019-221200-
_____VERMONT_____


CITY           SKY/WX    TMP DP  RH WIND       PRES   REMARKS
BURLINGTON     CLOUDY    52  50  93 CALM      30.15R
MONTPELIER     FOG       45  45 100 CALM      30.19S VSB<1/4
MORRISVILLE    CLOUDY    42  42 100 CALM      30.19R FOG
ST. JOHNSBURY*   N/A     46  46 100 MISG      30.15R
LYNDONVILLE*   FAIR      48  45  87 CALM      30.18S
MIDDLEBURY*    FAIR      49  49  98 CALM      30.14R
RUTLAND*       CLOUDY    50  48  93 SE8       30.14R
SPRINGFIELD    PTCLDY    48  46  93 CALM      30.13S
HIGHGATE*      FAIR      49  49 100 CALM      30.16R
NEWPORT*       FOG       47  47 100 CALM      30.20R VSB<1/4
BENNINGTON     CLOUDY    50  48  93 CALM      30.11R
SUTTON*          N/A    -17 N/A N/A MISG        N/A
ISLAND POND*     N/A     39 N/A N/A NW1         N/A
GALLUP MILLS*    N/A     43 N/A N/A MISG        N/A
UNION VILLAGE*   N/A     46 N/A N/A MISG        N/A
MT. MANSFIELD*   N/A     55 N/A N/A E6G22       N/A

_____LAKE CHAMPLAIN_____


CITY           SKY/WX    TMP DP  RH WIND       PRES   REMARKS
BURTON ISLAND*   N/A     55  54  94 E1          N/A
COLCHESTER RF*   N/A     61  57  88 N10         N/A
DIAMOND ISL*     N/A     61  57  88 N10         N/A

$$

NYZ007-026>031-035-052-083-087-221200-
_____NORTHERN NEW YORK_____


CITY           SKY/WX    TMP DP  RH WIND       PRES   REMARKS
PLATTSBURGH    CLOUDY    50  48  93 CALM      30.15R
SARANAC LAKE   CLOUDY    38  38 100 CALM      30.16R
MASSENA        PTCLDY    48  48 100 CALM      30.17S FOG
OGDENSBURG*    FAIR      50  49  97 CALM      30.16R FOG
POTSDAM*       CLEAR    N/A N/A N/A CALM      30.17R HAZE
STARK FALLS*     N/A     50 N/A N/A SE2         N/A
WATERTOWN      PTCLDY    52  52 100 E6        30.13S
FT DRUM        CLOUDY    54  50  86 E6        30.14R
ALBANY         CLOUDY    57  53  86 N5        30.10R
GLENS FALLS    MOCLDY    50  48  93 E6        30.12R

$$
NHZ002-005-011-221200-
_____NEW HAMPSHIRE_____


CITY           SKY/WX    TMP DP  RH WIND       PRES   REMARKS
LEBANON        FOG       51  51 100 NE3       30.14R VSB 1/4
KEENE          CLOUDY    58  49  72 N10       30.09R
MT WASHINGTON  MOCLDY    48   7  18 E35         N/A
PLYMOUTH       FOG       48  47  98 CALM      30.15R VSB 3/4
WHITEFIELD     CLOUDY    43  41  93 NW5       30.16R

$$

_____REGIONAL QUEBEC LOCATIONS_____


CITY           SKY/WX    TMP DP  RH WIND       PRES   REMARKS
MONTREAL       PTCLDY    57  54  88 N9        30.17R
QUEBEC CITY    PTCLDY    52  48  87 N6        30.19S
SHERBROOKE     CLEAR     43  43 100 E6        30.19R

_____REGIONAL ONTARIO LOCATIONS_____


CITY           SKY/WX    TMP DP  RH WIND       PRES   REMARKS
OTTAWA         PTCLDY    57  54  88 N6        30.17R

______KEY______
VSB  - VISIBILITY IN MILES
WCI  - WIND CHILL INDEX
HX   - HEAT INDEX
$$
NNNN




USA.gov is the U.S. government's official web portal to all federal, state and local government web resources and services.